Time,TemperatureF,DewpointF,PressureIn,WindDirection,WindDirectionDegrees,WindSpeedMPH,WindSpeedGustMPH,Humidity,HourlyPrecipIn,Conditions,Clouds,dailyrainin,SoftwareType,DateUTC
2013-06-18 00:05:00,72.3,66.0,29.84,SSW,210,0.0,-999.0,81,-99.99,,,0.01,weatherlink.com 1.10,2013-06-18 05:05:00,
2013-06-18 00:20:00,71.8,66.0,29.84,SW,219,0.0,-999.0,82,-99.99,,,0.01,weatherlink.com 1.10,2013-06-18 05:20:00,
2013-06-18 00:35:00,71.3,66.0,29.84,SW,232,0.0,-999.0,83,-99.99,,,0.01,weatherlink.com 1.10,2013-06-18 05:35:00,
2013-06-18 00:50:00,70.9,66.0,29.84,SW,224,0.0,-999.0,84,-99.99,,,0.00,weatherlink.com 1.10,2013-06-18 05:50:00,
2013-06-18 01:05:00,70.4,66.0,29.84,SW,221,0.0,-999.0,85,-99.99,,,0.00,weatherlink.com 1.10,2013-06-18 06:05:00,
2013-06-18 01:20:00,69.9,66.0,29.84,SW,222,0.0,-999.0,86,-99.99,,,0.00,weatherlink.com 1.10,2013-06-18 06:20:00,
2013-06-18 01:35:00,69.4,65.0,29.84,SW,225,0.0,-999.0,86,-99.99,,,0.00,weatherlink.com 1.10,2013-06-18 06:35:00,
2013-06-18 01:50:00,69.0,65.0,29.84,WSW,239,0.0,-999.0,87,-99.99,,,0.00,weatherlink.com 1.10,2013-06-18 06:50:00,
2013-06-18 02:05:00,68.6,65.0,29.84,WSW,248,0.0,-999.0,87,-99.99,,,0.00,weatherlink.com 1.10,2013-06-18 07:05:00,
2013-06-18 02:20:00,68.2,65.0,29.84,WSW,248,0.0,-999.0,88,-99.99,,,0.00,weatherlink.com 1.10,2013-06-18 07:20:00,
2013-06-18 02:35:00,67.7,64.0,29.83,WSW,248,0.0,-999.0,88,-99.99,,,0.00,weatherlink.com 1.10,2013-06-18 07:35:00,
2013-06-18 02:50:00,67.3,64.0,29.84,WSW,248,0.0,-999.0,88,-99.99,,,0.00,weatherlink.com 1.10,2013-06-18 07:50:00,
2013-06-18 03:05:00,67.0,64.0,29.84,WSW,248,0.0,-999.0,89,-99.99,,,0.00,weatherlink.com 1.10,2013-06-18 08:05:00,
2013-06-18 03:20:00,66.5,63.0,29.84,WSW,248,0.0,-999.0,89,-99.99,,,0.00,weatherlink.com 1.10,2013-06-18 08:20:00,
2013-06-18 03:35:00,66.1,63.0,29.83,WSW,248,0.0,-999.0,89,-99.99,,,0.00,weatherlink.com 1.10,2013-06-18 08:35:00,
2013-06-18 03:50:00,65.7,63.0,29.84,WSW,248,0.0,-999.0,90,-99.99,,,0.00,weatherlink.com 1.10,2013-06-18 08:50:00,
2013-06-18 04:05:00,65.4,63.0,29.84,WSW,248,0.0,-999.0,90,-99.99,,,0.00,weatherlink.com 1.10,2013-06-18 09:05:00,
2013-06-18 04:20:00,65.1,63.0,29.84,WSW,248,0.0,-999.0,91,-99.99,,,0.00,weatherlink.com 1.10,2013-06-18 09:20:00,
2013-06-18 04:35:00,64.8,62.0,29.85,WSW,248,0.0,-999.0,91,-99.99,,,0.00,weatherlink.com 1.10,2013-06-18 09:35:00,
2013-06-18 04:50:00,64.5,62.0,29.86,WSW,248,0.0,-999.0,92,-99.99,,,0.00,weatherlink.com 1.10,2013-06-18 09:50:00,
2013-06-18 05:06:00,64.1,62.0,29.86,WSW,248,0.0,-999.0,92,-99.99,,,0.00,weatherlink.com 1.10,2013-06-18 10:06:00,
2013-06-18 05:21:00,63.6,61.0,29.86,WSW,248,0.0,-999.0,91,-99.99,,,0.00,weatherlink.com 1.10,2013-06-18 10:21:00,
2013-06-18 05:36:00,63.2,61.0,29.87,West,277,0.0,-999.0,91,-99.99,,,0.00,weatherlink.com 1.10,2013-06-18 10:36:00,
2013-06-18 05:51:00,63.2,60.0,29.86,NW,319,0.0,-999.0,89,-99.99,,,0.00,weatherlink.com 1.10,2013-06-18 10:51:00,
2013-06-18 06:06:00,63.3,60.0,29.86,NW,320,0.0,-999.0,88,-99.99,,,0.00,weatherlink.com 1.10,2013-06-18 11:06:00,
2013-06-18 06:21:00,63.5,60.0,29.87,NW,320,0.0,-999.0,88,-99.99,,,0.00,weatherlink.com 1.10,2013-06-18 11:21:00,
2013-06-18 06:36:00,63.7,60.0,29.88,NW,321,0.0,-999.0,88,-99.99,,,0.00,weatherlink.com 1.10,2013-06-18 11:36:00,
2013-06-18 06:52:00,64.1,60.0,29.89,NNW,334,0.0,-999.0,87,-99.99,,,0.00,weatherlink.com 1.10,2013-06-18 11:52:00,
2013-06-18 07:06:00,64.7,61.0,29.89,NNW,335,0.0,-999.0,86,-99.99,,,0.00,weatherlink.com 1.10,2013-06-18 12:06:00,
2013-06-18 07:21:00,65.6,61.0,29.89,NNE,26,1.0,-999.0,85,-99.99,,,0.00,weatherlink.com 1.10,2013-06-18 12:21:00,
2013-06-18 07:36:00,66.3,61.0,29.90,North,355,0.0,-999.0,83,-99.99,,,0.00,weatherlink.com 1.10,2013-06-18 12:36:00,
2013-06-18 07:51:00,67.4,62.0,29.90,North,355,0.0,-999.0,82,-99.99,,,0.00,weatherlink.com 1.10,2013-06-18 12:51:00,
2013-06-18 08:06:00,67.9,62.0,29.90,NNW,344,1.0,-999.0,81,-99.99,,,0.00,weatherlink.com 1.10,2013-06-18 13:06:00,
2013-06-18 08:21:00,68.5,62.0,29.89,NNE,24,0.0,-999.0,80,-99.99,,,0.00,weatherlink.com 1.10,2013-06-18 13:21:00,
2013-06-18 08:36:00,69.5,62.0,29.89,NE,41,0.0,-999.0,77,-99.99,,,0.00,weatherlink.com 1.10,2013-06-18 13:36:00,
2013-06-18 08:51:00,70.0,62.0,29.89,North,350,3.0,-999.0,75,-99.99,,,0.00,weatherlink.com 1.10,2013-06-18 13:51:00,
2013-06-18 09:06:00,71.3,62.0,29.89,NE,44,0.0,-999.0,72,-99.99,,,0.00,weatherlink.com 1.10,2013-06-18 14:06:00,
2013-06-18 09:22:00,71.6,63.0,29.88,NNE,30,0.0,-999.0,73,-99.99,,,0.00,weatherlink.com 1.10,2013-06-18 14:22:00,
2013-06-18 09:37:00,72.6,62.0,29.89,North,5,0.0,-999.0,70,-99.99,,,0.00,weatherlink.com 1.10,2013-06-18 14:37:00,
2013-06-18 09:52:00,73.5,62.0,29.89,NE,38,0.0,-999.0,68,-99.99,,,0.00,weatherlink.com 1.10,2013-06-18 14:52:00,
2013-06-18 10:06:00,74.5,63.0,29.89,NE,36,0.0,-999.0,68,-99.99,,,0.00,weatherlink.com 1.10,2013-06-18 15:06:00,
2013-06-18 10:21:00,74.6,62.0,29.89,NNE,33,0.0,-999.0,66,-99.99,,,0.00,weatherlink.com 1.10,2013-06-18 15:21:00,
2013-06-18 10:36:00,75.4,62.0,29.89,NE,51,0.0,-999.0,64,-99.99,,,0.00,weatherlink.com 1.10,2013-06-18 15:36:00,
2013-06-18 10:51:00,76.8,63.0,29.90,NE,52,4.0,-999.0,62,-99.99,,,0.00,weatherlink.com 1.10,2013-06-18 15:51:00,
2013-06-18 11:07:00,77.3,62.0,29.89,NE,38,5.0,-999.0,60,-99.99,,,0.00,weatherlink.com 1.10,2013-06-18 16:07:00,
2013-06-18 11:22:00,77.8,63.0,29.90,NE,40,0.0,-999.0,61,-99.99,,,0.00,weatherlink.com 1.10,2013-06-18 16:22:00,
2013-06-18 11:37:00,79.1,62.0,29.89,NNE,28,6.0,-999.0,57,-99.99,,,0.00,weatherlink.com 1.10,2013-06-18 16:37:00,
2013-06-18 11:52:00,78.9,63.0,29.90,NE,40,11.0,-999.0,58,-99.99,,,0.00,weatherlink.com 1.10,2013-06-18 16:52:00,
2013-06-18 12:07:00,79.7,62.0,29.90,NE,55,4.0,-999.0,55,-99.99,,,0.00,weatherlink.com 1.10,2013-06-18 17:07:00,
2013-06-18 12:23:00,80.4,62.0,29.90,NE,43,0.0,-999.0,54,-99.99,,,0.00,weatherlink.com 1.10,2013-06-18 17:23:00,
2013-06-18 12:38:00,79.9,62.0,29.89,ENE,70,0.0,-999.0,55,-99.99,,,0.00,weatherlink.com 1.10,2013-06-18 17:38:00,
2013-06-18 12:53:00,80.5,63.0,29.89,ESE,107,0.0,-999.0,56,-99.99,,,0.00,weatherlink.com 1.10,2013-06-18 17:53:00,
2013-06-18 13:07:00,81.4,62.0,29.89,North,5,2.0,-999.0,52,-99.99,,,0.00,weatherlink.com 1.10,2013-06-18 18:07:00,
2013-06-18 13:22:00,81.4,61.0,29.89,North,355,0.0,-999.0,50,-99.99,,,0.00,weatherlink.com 1.10,2013-06-18 18:22:00,
2013-06-18 13:37:00,81.8,63.0,29.89,NNE,15,0.0,-999.0,53,-99.99,,,0.00,weatherlink.com 1.10,2013-06-18 18:37:00,
2013-06-18 13:52:00,83.3,63.0,29.88,NE,37,0.0,-999.0,51,-99.99,,,0.00,weatherlink.com 1.10,2013-06-18 18:52:00,
2013-06-18 14:07:00,82.7,62.0,29.88,NNE,17,5.0,-999.0,50,-99.99,,,0.00,weatherlink.com 1.10,2013-06-18 19:07:00,
2013-06-18 14:22:00,82.8,62.0,29.88,NE,36,5.0,-999.0,50,-99.99,,,0.00,weatherlink.com 1.10,2013-06-18 19:22:00,
2013-06-18 14:37:00,83.2,63.0,29.88,NE,50,0.0,-999.0,50,-99.99,,,0.00,weatherlink.com 1.10,2013-06-18 19:37:00,
2013-06-18 14:52:00,82.9,63.0,29.87,ENE,61,0.0,-999.0,51,-99.99,,,0.00,weatherlink.com 1.10,2013-06-18 19:52:00,
2013-06-18 15:08:00,82.1,64.0,29.87,NE,37,0.0,-999.0,54,-99.99,,,0.00,weatherlink.com 1.10,2013-06-18 20:08:00,
2013-06-18 15:23:00,81.8,63.0,29.88,NNE,31,0.0,-999.0,54,-99.99,,,0.00,weatherlink.com 1.10,2013-06-18 20:23:00,
2013-06-18 15:38:00,82.0,64.0,29.87,North,5,2.0,-999.0,55,-99.99,,,0.00,weatherlink.com 1.10,2013-06-18 20:38:00,
2013-06-18 15:53:00,81.6,64.0,29.87,NE,37,8.0,-999.0,55,-99.99,,,0.00,weatherlink.com 1.10,2013-06-18 20:53:00,
2013-06-18 16:07:00,81.5,64.0,29.87,ENE,76,0.0,-999.0,56,-99.99,,,0.00,weatherlink.com 1.10,2013-06-18 21:07:00,
2013-06-18 16:22:00,82.3,64.0,29.87,NE,45,7.0,-999.0,54,-99.99,,,0.00,weatherlink.com 1.10,2013-06-18 21:22:00,
2013-06-18 16:37:00,81.4,64.0,29.87,NE,46,0.0,-999.0,56,-99.99,,,0.00,weatherlink.com 1.10,2013-06-18 21:37:00,
2013-06-18 16:52:00,79.7,65.0,29.87,NE,34,0.0,-999.0,62,-99.99,,,0.00,weatherlink.com 1.10,2013-06-18 21:52:00,
2013-06-18 17:07:00,79.5,66.0,29.87,NE,35,9.0,-999.0,63,-99.99,,,0.00,weatherlink.com 1.10,2013-06-18 22:07:00,
2013-06-18 17:22:00,78.8,65.0,29.87,NNE,24,1.0,-999.0,63,-99.99,,,0.00,weatherlink.com 1.10,2013-06-18 22:22:00,
2013-06-18 17:37:00,77.3,65.0,29.88,ENE,57,7.0,-999.0,66,-99.99,,,0.00,weatherlink.com 1.10,2013-06-18 22:37:00,
2013-06-18 17:52:00,77.5,65.0,29.88,NE,42,2.0,-999.0,65,-99.99,,,0.00,weatherlink.com 1.10,2013-06-18 22:52:00,
2013-06-18 18:08:00,77.3,65.0,29.88,NE,42,11.0,-999.0,66,-99.99,,,0.00,weatherlink.com 1.10,2013-06-18 23:08:00,
2013-06-18 18:23:00,75.8,62.0,29.89,NNE,32,0.0,-999.0,63,-99.99,,,0.00,weatherlink.com 1.10,2013-06-18 23:23:00,
2013-06-18 18:38:00,74.9,63.0,29.89,NE,55,5.0,-999.0,66,-99.99,,,0.00,weatherlink.com 1.10,2013-06-18 23:38:00,
2013-06-18 18:53:00,74.0,63.0,29.90,NNE,21,13.0,-999.0,68,-99.99,,,0.00,weatherlink.com 1.10,2013-06-18 23:53:00,
2013-06-18 19:07:00,73.4,63.0,29.90,NNE,30,0.0,-999.0,69,-99.99,,,0.00,weatherlink.com 1.10,2013-06-19 00:07:00,
2013-06-18 19:22:00,72.6,62.0,29.90,NE,35,1.0,-999.0,69,-99.99,,,0.00,weatherlink.com 1.10,2013-06-19 00:22:00,
2013-06-18 19:37:00,71.6,61.0,29.91,NE,36,0.0,-999.0,70,-99.99,,,0.00,weatherlink.com 1.10,2013-06-19 00:37:00,
2013-06-18 19:53:00,70.9,61.0,29.91,North,5,0.0,-999.0,70,-99.99,,,0.00,weatherlink.com 1.10,2013-06-19 00:53:00,
2013-06-18 20:08:00,69.9,60.0,29.92,NNE,21,6.0,-999.0,71,-99.99,,,0.00,weatherlink.com 1.10,2013-06-19 01:08:00,
2013-06-18 20:23:00,69.1,59.0,29.92,NNE,33,7.0,-999.0,71,-99.99,,,0.00,weatherlink.com 1.10,2013-06-19 01:23:00,
2013-06-18 20:38:00,68.3,59.0,29.93,NNE,13,3.0,-999.0,72,-99.99,,,0.00,weatherlink.com 1.10,2013-06-19 01:38:00,
2013-06-18 20:53:00,67.7,59.0,29.93,North,5,0.0,-999.0,73,-99.99,,,0.00,weatherlink.com 1.10,2013-06-19 01:53:00,
2013-06-18 21:08:00,67.0,58.0,29.95,ENE,68,4.0,-999.0,73,-99.99,,,0.00,weatherlink.com 1.10,2013-06-19 02:08:00,
2013-06-18 21:23:00,66.4,58.0,29.95,NNE,14,0.0,-999.0,73,-99.99,,,0.00,weatherlink.com 1.10,2013-06-19 02:23:00,
2013-06-18 21:38:00,65.8,57.0,29.96,ENE,57,1.0,-999.0,73,-99.99,,,0.00,weatherlink.com 1.10,2013-06-19 02:38:00,
2013-06-18 21:53:00,65.2,57.0,29.97,ENE,59,0.0,-999.0,74,-99.99,,,0.00,weatherlink.com 1.10,2013-06-19 02:53:00,
2013-06-18 22:08:00,64.8,56.0,29.97,NNE,24,7.0,-999.0,74,-99.99,,,0.00,weatherlink.com 1.10,2013-06-19 03:08:00,
2013-06-18 22:23:00,64.1,56.0,29.97,NNE,29,0.0,-999.0,75,-99.99,,,0.00,weatherlink.com 1.10,2013-06-19 03:23:00,
2013-06-18 22:38:00,63.6,56.0,29.97,NE,36,5.0,-999.0,76,-99.99,,,0.00,weatherlink.com 1.10,2013-06-19 03:38:00,
2013-06-18 22:53:00,63.0,55.0,29.97,NE,36,2.0,-999.0,76,-99.99,,,0.00,weatherlink.com 1.10,2013-06-19 03:53:00,
2013-06-18 23:08:00,62.6,55.0,29.97,North,360,0.0,-999.0,77,-99.99,,,0.00,weatherlink.com 1.10,2013-06-19 04:08:00,
2013-06-18 23:23:00,62.3,55.0,29.97,NNE,13,0.0,-999.0,78,-99.99,,,0.00,weatherlink.com 1.10,2013-06-19 04:23:00,
2013-06-18 23:38:00,61.8,55.0,29.97,NNE,24,0.0,-999.0,79,-99.99,,,0.00,weatherlink.com 1.10,2013-06-19 04:38:00,
2013-06-18 23:53:00,61.4,55.0,29.97,NNE,22,5.0,-999.0,80,-99.99,,,0.00,weatherlink.com 1.10,2013-06-19 04:53:00,